2023/08/08 00:00:00, 0.0,25.3
2023/08/08 00:10:00, 0.0,25.5
2023/08/08 00:20:00, 0.0,25.4
2023/08/08 00:30:00, 0.0,25.3
2023/08/08 00:40:00, 0.0,25.3
2023/08/08 00:50:00, 0.0,25.1
2023/08/08 01:00:00, 0.0,24.7
2023/08/08 01:10:00, 0.0,25.0
2023/08/08 01:20:00, 0.0,25.6
2023/08/08 01:30:00, 0.0,25.2
2023/08/08 01:40:00, 0.0,24.8
2023/08/08 01:50:00, 0.0,25.2
2023/08/08 02:00:00, 0.0,25.3
2023/08/08 02:10:00, 0.0,24.7
2023/08/08 02:20:00, 0.0,24.6
2023/08/08 02:30:00, 0.0,25.1
2023/08/08 02:40:00, 0.0,24.5
2023/08/08 02:50:00, 0.0,24.7
2023/08/08 03:00:00, 0.0,24.7
2023/08/08 03:10:00, 0.0,23.4
2023/08/08 03:20:00, 0.0,24.1
2023/08/08 03:30:00, 0.0,24.0
2023/08/08 03:40:00, 0.0,24.0
2023/08/08 03:50:00, 0.0,23.3
2023/08/08 04:00:00, 0.0,23.3
2023/08/08 04:10:00, 0.0,23.1
2023/08/08 04:20:00, 0.0,22.5
2023/08/08 04:30:00, 0.0,22.6
2023/08/08 04:40:00, 0.0,22.3
2023/08/08 04:50:00,---,22.8
2023/08/08 05:00:00,---,22.5
2023/08/08 05:10:00,26.7,22.4
2023/08/08 05:20:00,38.1,22.2
2023/08/08 05:30:00,37.9,22.0
2023/08/08 05:40:00,37.7,22.3
2023/08/08 05:50:00,37.4,22.3
2023/08/08 06:00:00,37.1,22.3
2023/08/08 06:10:00,36.7,22.1
2023/08/08 06:20:00,36.4,22.6
2023/08/08 06:30:00,36.0,22.7
2023/08/08 06:40:00,35.7,23.2
2023/08/08 06:50:00,35.3,23.2
2023/08/08 07:00:00,35.1,23.3
2023/08/08 07:10:00,34.5,23.2
2023/08/08 07:20:00,34.3,23.3
2023/08/08 07:30:00,33.8,23.5
2023/08/08 07:40:00,34.0,24.4
2023/08/08 07:50:00,33.4,25.5
2023/08/08 08:00:00,33.4,25.9
2023/08/08 08:10:00,33.4,26.1
2023/08/08 08:20:00,33.4,27.4
2023/08/08 08:30:00,29.1,29.4
2023/08/08 08:40:00,---,30.2
2023/08/08 08:50:00,---,28.7
2023/08/08 09:00:00,23.4,28.5
2023/08/08 09:10:00,25.9,27.6
2023/08/08 09:20:00,34.9,27.4
2023/08/08 09:30:00,35.0,28.2
2023/08/08 09:40:00,34.3,29.5
2023/08/08 09:50:00,---,28.9
2023/08/08 10:00:00,---,27.7
2023/08/08 10:10:00,33.5,28.2
2023/08/08 10:20:00,---,28.9
2023/08/08 10:30:00,12.7,29.2
2023/08/08 10:40:00,---,29.0
2023/08/08 10:50:00,12.1,28.5
2023/08/08 11:00:00,31.3,28.5
2023/08/08 11:10:00,---,28.4
2023/08/08 11:20:00,33.5,28.1
2023/08/08 11:30:00,33.6,28.2
2023/08/08 11:40:00,33.6,28.8
2023/08/08 11:50:00,---,29.0
2023/08/08 12:00:00, 7.3,29.3
2023/08/08 12:10:00,18.5,29.1
2023/08/08 12:20:00,10.5,30.0
2023/08/08 12:30:00,12.3,29.4
2023/08/08 12:40:00,---,29.7
2023/08/08 12:50:00,33.2,29.8
2023/08/08 13:00:00,---,30.7
2023/08/08 13:10:00, 3.5,30.8
2023/08/08 13:20:00, 7.4,31.5
2023/08/08 13:30:00, 0.5,32.0
2023/08/08 13:40:00, 0.4,32.1
2023/08/08 13:50:00, 0.3,31.9
2023/08/08 14:00:00, 0.3,30.7
2023/08/08 14:10:00,---,30.9
2023/08/08 14:20:00, 2.4,30.3
2023/08/08 14:30:00, 1.5,29.6
2023/08/08 14:40:00, 1.5,31.1
2023/08/08 14:50:00, 0.2,30.9
2023/08/08 15:00:00, 0.9,30.7
2023/08/08 15:10:00, 0.3,30.3
2023/08/08 15:20:00, 9.7,29.7
2023/08/08 15:30:00,---,29.7
2023/08/08 15:40:00,11.3,30.2
2023/08/08 15:50:00, 1.5,29.7
2023/08/08 16:00:00, 0.8,29.4
2023/08/08 16:10:00,10.8,28.9
2023/08/08 16:20:00,13.4,28.7
2023/08/08 16:30:00, 1.2,28.6
2023/08/08 16:40:00,13.9,28.3
2023/08/08 16:50:00,29.6,28.2
2023/08/08 17:00:00,32.3,27.7
2023/08/08 17:10:00,32.2,27.5
2023/08/08 17:20:00,---,27.8
2023/08/08 17:30:00,31.9,27.2
2023/08/08 17:40:00,32.1,27.2
2023/08/08 17:50:00,31.4,27.1
2023/08/08 18:00:00,26.0,27.6
2023/08/08 18:10:00, 5.8,27.2
2023/08/08 18:20:00,---,26.9
2023/08/08 18:30:00,23.1,27.6
2023/08/08 18:40:00,10.1,26.5
2023/08/08 18:50:00, 5.5,27.1
2023/08/08 19:00:00, 0.5,27.0
2023/08/08 19:10:00, 1.0,26.7
2023/08/08 19:20:00, 1.2,27.1
2023/08/08 19:30:00, 0.5,26.5
2023/08/08 19:40:00, 1.8,26.3
2023/08/08 19:50:00, 3.4,26.3
2023/08/08 20:00:00, 0.7,26.1
2023/08/08 20:10:00, 0.4,26.7
2023/08/08 20:20:00, 2.4,26.8
2023/08/08 20:30:00, 1.7,26.9
2023/08/08 20:40:00, 0.0,26.9
2023/08/08 20:50:00, 0.0,26.5
2023/08/08 21:00:00, 0.0,26.7
2023/08/08 21:10:00, 0.3,26.3
2023/08/08 21:20:00, 0.0,26.5
2023/08/08 21:30:00, 0.0,26.8
2023/08/08 21:40:00, 0.0,26.7
2023/08/08 21:50:00, 0.0,26.7
2023/08/08 22:00:00, 0.0,26.5
2023/08/08 22:10:00, 0.0,25.8
2023/08/08 22:20:00, 0.0,26.1
2023/08/08 22:30:00, 0.0,26.5
2023/08/08 22:40:00, 0.0,26.4
2023/08/08 22:50:00, 0.0,26.5
2023/08/08 23:00:00, 0.0,26.5
2023/08/08 23:10:00, 0.0,26.4
2023/08/08 23:20:00, 0.0,26.1
2023/08/08 23:30:00, 0.0,26.2
2023/08/08 23:40:00, 0.0,26.1
2023/08/08 23:50:00, 0.0,26.3
